Wind_Speed
27 27 28 28 28 27 27 26 27 26 24 23 23 21 21 21 20 18 17 17 17 17 17 16 16 16 17 17 18 18 19 19 19 19 19 18 18 17 16 17 17 18 19 19
29 29 29 29 29 29 29 29 29 28 27 26 26 24 24 24 24 22 20 20 20 20 20 19 18 18 19 19 19 20 20 20 20 20 20 19 19 19 19 19 20 21 21 22
31 30 30 31 30 31 31 30 30 31 29 28 28 28 27 26 25 24 23 23 23 23 22 22 22 22 21 21 21 21 22 21 22 22 23 22 22 22 23 23 23 24 24 24
32 32 34 32 31 31 33 32 31 31 31 31 30 29 28 27 27 26 26 25 24 24 25 25 25 25 24 24 24 24 25 25 26 25 25 24 24 24 25 25 26 27 26 26
32 32 33 31 31 32 33 34 33 33 32 32 32 31 30 30 29 28 27 27 26 26 27 27 27 27 27 27 27 27 27 27 27 27 27 27 27 27 27 28 29 29 29 28
32 32 33 31 31 32 33 34 33 33 33 33 33 32 31 31 30 29 29 29 29 29 30 30 30 30 30 30 30 30 29 29 29 29 30 29 29 29 29 30 30 30 29 29
32 33 33 32 32 32 34 33 33 33 33 33 33 33 33 32 32 32 32 31 31 32 32 32 32 32 33 33 34 33 32 32 31 31 32 32 31 31 31 31 31 30 30 29
33 33 33 33 33 33 33 33 33 33 33 33 34 34 34 34 34 34 35 35 34 35 34 35 35 35 35 36 36 36 35 34 33 33 33 33 33 33 33 32 31 31 31 31
33 34 33 34 34 34 34 33 32 33 33 34 35 36 36 36 36 36 37 38 38 38 38 39 39 38 37 37 36 36 36 36 35 35 35 35 35 34 34 33 33 32 32 32
33 34 34 35 36 35 35 34 34 34 34 35 35 36 36 37 37 38 39 39 39 40 40 40 39 38 38 37 37 36 36 37 37 36 36 36 35 35 35 34 33 33 33 33
34 35 35 35 36 37 37 36 35 35 35 36 36 37 37 37 38 40 40 40 40 40 40 40 39 39 38 37 38 37 36 37 37 37 37 36 36 36 36 35 35 34 34 34
33 34 34 34 35 36 36 34 34 35 36 36 37 37 37 38 39 39 40 40 41 41 41 41 40 40 39 39 38 38 37 36 36 37 37 37 36 36 36 36 36 35 34 34
33 33 34 34 34 34 35 35 34 35 37 37 37 38 38 38 39 39 40 41 41 41 42 41 41 40 40 40 39 39 38 37 36 36 37 37 36 36 36 35 35 35 34 34
32 32 32 32 32 32 33 34 34 35 37 38 39 39 39 39 39 39 39 39 39 40 40 40 40 40 40 40 39 38 39 38 37 37 36 36 36 36 36 36 35 35 35 35
29 30 31 31 32 32 33 34 35 36 36 36 36 38 38 38 38 38 38 38 38 38 39 38 38 38 39 39 38 38 37 38 37 37 36 36 36 36 35 35 35 34 34 34
29 30 31 32 32 32 33 34 35 35 34 33 33 35 36 37 37 38 38 38 38 37 37 38 38 38 38 37 37 36 36 35 35 35 35 35 35 34 34 35 35 34 34 33
27 28 30 31 31 32 34 34 34 33 33 33 32 33 34 35 36 37 37 37 36 36 36 36 37 37 36 35 34 34 35 35 35 34 33 33 32 33 34 34 34 33 33 33
25 27 28 29 30 31 31 32 32 31 31 32 33 34 34 34 34 34 35 35 35 34 35 35 35 35 35 34 34 35 35 34 34 34 33 32 32 32 33 33 32 32 31 32
24 25 26 28 29 29 29 29 30 30 31 31 32 33 33 33 33 33 33 33 33 34 33 34 34 34 35 35 34 34 34 34 34 33 33 32 32 32 33 32 31 31 31 32
24 25 25 25 27 28 28 28 28 29 29 30 30 30 30 30 31 31 31 31 32 32 33 33 34 34 34 34 33 33 33 34 34 34 34 33 32 32 31 31 32 32 32 32
24 24 24 23 24 25 26 27 28 28 29 29 28 29 29 29 29 30 30 31 31 32 31 32 32 32 31 31 32 33 33 33 34 34 33 32 32 31 31 32 32 32 32 33
22 23 23 23 23 24 24 25 26 27 28 28 28 28 28 28 28 28 29 29 29 30 30 30 30 30 31 31 32 32 33 32 32 31 32 32 32 32 32 32 32 32 32 32
22 22 23 23 23 23 23 24 25 25 26 26 27 27 28 28 28 28 27 27 28 27 27 28 28 28 29 29 29 29 29 30 30 31 31 32 32 32 32 32 32 31 31 31
22 22 22 22 22 22 22 22 22 22 22 23 24 24 25 25 25 25 26 26 26 26 26 26 25 26 26 26 26 26 27 28 29 29 30 30 30 31 31 31 30 30 30 30
20 20 20 20 20 20 20 20 20 20 21 21 22 21 21 21 22 22 23 24 24 24 24 24 24 25 24 24 24 25 26 26 27 28 28 28 29 30 30 29 29 29 29 29
18 18 18 18 18 18 18 18 19 19 19 19 19 19 19 20 20 21 22 22 22 22 22 22 23 23 23 23 23 23 24 25 26 27 27 27 28 29 29 28 28 28 28 28
16 16 16 16 16 16 17 17 17 17 17 17 17 17 18 19 19 19 20 20 20 20 21 21 22 22 22 22 22 22 22 23 24 25 25 27 27 28 27 27 27 27 27 27
Wind_Direction
239 236 236 236 237 238 240 243 244 244 246 250 253 256 260 263 265 268 270 274 278 280 281 282 284 289 293 294 295 296 295 296 296 296 296 294 297 297 297 298 298 300 300 298
239 238 238 238 238 240 243 245 247 247 248 251 253 252 254 258 263 264 269 275 275 277 280 284 286 289 292 293 292 292 293 291 294 293 294 295 294 290 293 296 296 296 297 296
240 240 241 241 239 240 242 245 249 251 252 253 254 253 254 258 262 265 267 269 273 278 280 282 284 286 288 290 290 290 291 290 292 291 292 292 290 289 291 293 293 294 295 293
240 241 242 243 241 243 244 245 248 254 254 252 256 257 257 260 262 264 266 268 271 274 275 279 282 283 284 285 286 287 289 289 289 290 290 289 287 288 288 290 291 291 292 292
242 243 245 244 243 244 247 248 250 252 254 252 254 256 258 260 261 264 265 267 269 270 272 274 276 279 281 283 285 286 287 288 288 288 288 287 286 286 287 287 288 289 289 290
245 245 246 247 247 247 249 251 251 251 253 253 254 255 258 261 262 263 264 265 266 267 269 272 275 276 278 281 283 283 284 284 285 285 285 286 286 286 286 287 288 288 288 289
245 246 248 249 250 250 250 251 251 252 252 253 254 257 258 259 261 263 265 267 268 269 269 270 273 275 276 279 281 281 281 282 282 283 284 284 285 287 287 287 288 289 290 290
247 247 250 251 253 254 253 252 252 253 253 254 254 256 257 259 262 265 266 267 268 270 271 272 272 273 275 277 278 278 279 280 281 281 283 284 285 286 287 287 289 289 290 289
249 251 253 253 254 257 257 255 256 257 257 257 257 257 258 260 262 265 267 268 269 271 272 273 274 274 274 276 276 276 276 278 279 280 281 282 283 284 284 286 287 288 288 287
249 250 253 255 256 258 259 258 258 257 257 259 259 259 260 261 263 265 267 269 271 272 273 273 275 276 274 274 275 274 275 276 276 277 278 280 281 282 283 283 284 286 286 286
253 254 256 257 258 259 260 260 258 256 256 259 260 260 260 262 264 266 268 270 271 272 273 274 274 275 276 275 276 275 275 275 275 276 278 279 281 282 282 282 282 283 284 284
255 256 258 259 260 260 259 260 259 257 256 260 261 262 263 264 266 267 268 269 271 272 273 273 274 275 276 277 276 274 274 275 276 275 277 279 280 281 282 281 279 280 281 283
256 257 258 260 259 260 261 261 261 259 260 261 262 264 265 267 268 269 269 270 271 272 273 273 274 274 274 274 274 276 276 276 277 277 278 280 280 280 280 281 281 280 281 283
257 259 259 259 259 260 263 263 262 262 261 262 263 265 266 267 268 269 270 271 272 272 271 272 272 272 273 273 274 275 277 277 277 278 278 278 279 280 280 280 280 280 282 283
257 260 261 261 262 262 263 264 265 265 265 266 266 266 267 267 269 270 271 272 273 272 272 271 271 271 272 274 275 275 276 277 277 277 277 278 279 278 278 279 280 280 281 281
259 262 263 263 263 264 264 264 266 267 267 268 269 270 270 270 270 271 273 274 274 273 273 272 271 271 272 274 275 275 276 276 276 276 277 279 279 278 278 279 281 280 280 280
262 263 263 263 264 265 265 265 265 266 268 269 271 272 272 272 272 272 272 273 273 274 274 274 273 271 271 272 273 274 275 275 277 277 278 278 278 279 279 280 281 282 281 281
265 266 265 265 264 265 266 266 266 267 268 269 271 272 272 272 273 273 273 273 272 272 273 274 273 271 270 271 271 272 273 275 276 276 276 276 276 278 278 280 280 280 281 281
267 268 267 266 265 266 268 268 267 268 269 270 271 271 272 273 273 273 274 272 271 271 272 273 273 272 271 271 271 271 271 272 274 276 277 276 276 277 277 277 279 281 283 283
270 273 272 270 270 269 267 267 267 267 268 269 270 271 272 273 273 273 273 273 272 273 272 273 273 273 272 271 271 271 271 271 271 272 274 275 275 275 276 277 279 281 282 283
273 273 273 274 273 272 270 269 268 268 269 270 271 272 272 273 274 275 274 275 275 276 276 276 275 275 276 275 273 273 272 272 272 272 273 274 275 276 277 278 279 280 282 282
274 274 274 276 275 275 274 272 271 270 270 271 272 273 273 274 275 275 276 276 277 278 277 277 277 277 278 278 277 276 275 274 273 273 274 274 275 276 277 277 279 282 285 285
274 274 274 276 277 278 277 276 275 274 272 272 273 274 274 275 275 275 277 278 279 279 279 278 279 279 281 280 279 278 276 275 274 274 276 276 277 278 278 279 281 283 284 284
275 276 277 277 277 278 280 279 278 276 274 274 274 275 276 276 275 276 277 278 279 279 280 280 281 282 282 282 280 279 278 277 277 277 277 279 279 280 281 281 281 281 282 284
276 278 278 278 278 279 280 279 279 279 278 275 275 276 276 276 277 278 279 279 279 281 283 284 284 283 282 282 281 280 280 279 278 278 279 279 280 280 281 281 281 281 282 284
279 280 280 280 281 281 282 281 280 280 277 275 276 277 277 278 278 279 281 282 282 284 285 285 285 284 284 284 284 283 284 283 282 280 279 278 279 279 280 280 280 281 282 284
281 281 281 282 281 282 282 282 281 281 281 280 279 280 280 281 281 282 284 284 285 287 287 286 287 287 285 283 283 284 284 284 284 284 283 282 282 282 281 280 281 282 282 283
Height
5877 5880 5882 5883 5885 5886 5887 5888 5890 5891 5892 5894 5894 5895 5895 5895 5896 5898 5898 5898 5899 5899 5899 5899 5898 5897 5896 5895 5893 5891 5889 5887 5886 5884 5882 5880 5879 5877 5874 5873 5871 5869 5867 5865
5870 5873 5875 5877 5879 5881 5882 5883 5884 5885 5887 5888 5889 5890 5890 5891 5891 5892 5893 5893 5893 5893 5893 5893 5892 5892 5891 5890 5888 5886 5884 5883 5880 5878 5876 5875 5873 5872 5870 5867 5866 5864 5862 5859
5863 5865 5868 5870 5873 5874 5875 5876 5878 5879 5881 5882 5883 5884 5884 5885 5886 5886 5887 5888 5887 5887 5886 5886 5886 5886 5885 5884 5882 5880 5878 5876 5874 5872 5870 5869 5868 5866 5864 5862 5860 5858 5855 5853
5855 5858 5859 5865 5865 5867 5868 5869 5871 5872 5873 5875 5876 5877 5878 5879 5879 5880 5881 5881 5881 5881 5880 5880 5879 5879 5878 5878 5876 5874 5872 5870 5868 5866 5864 5863 5861 5860 5858 5856 5853 5851 5848 5846
5847 5849 5851 5855 5857 5859 5860 5861 5863 5864 5866 5867 5868 5870 5871 5872 5872 5873 5873 5874 5874 5874 5874 5873 5872 5871 5871 5870 5869 5867 5866 5863 5861 5859 5857 5855 5854 5852 5850 5848 5846 5843 5841 5838
5839 5841 5843 5847 5849 5850 5852 5852 5854 5856 5857 5858 5860 5862 5864 5864 5864 5865 5865 5866 5866 5866 5866 5865 5864 5864 5863 5862 5861 5860 5858 5856 5853 5851 5849 5847 5845 5843 5842 5840 5837 5834 5832 5830
5831 5832 5834 5838 5840 5841 5843 5845 5846 5847 5848 5849 5851 5853 5855 5855 5856 5856 5856 5857 5857 5857 5857 5856 5855 5854 5853 5853 5852 5850 5849 5847 5845 5843 5840 5838 5836 5834 5832 5830 5828 5826 5823 5821
5823 5825 5829 5830 5831 5833 5834 5836 5837 5838 5839 5840 5842 5844 5845 5846 5846 5847 5847 5847 5847 5847 5847 5846 5845 5844 5843 5842 5841 5840 5838 5837 5835 5833 5831 5829 5827 5825 5822 5821 5819 5817 5815 5813
5815 5818 5819 5820 5822 5823 5824 5826 5827 5828 5830 5831 5832 5834 5835 5836 5836 5836 5836 5836 5836 5836 5836 5835 5834 5832 5832 5831 5830 5829 5827 5826 5825 5823 5821 5819 5817 5815 5813 5811 5809 5807 5805 5803
5806 5808 5810 5811 5812 5814 5815 5816 5817 5818 5819 5820 5822 5823 5824 5825 5826 5826 5826 5826 5825 5825 5824 5823 5822 5821 5820 5819 5818 5817 5816 5815 5814 5812 5811 5808 5806 5804 5802 5801 5799 5797 5795 5794
5797 5799 5800 5802 5803 5804 5805 5806 5807 5808 5809 5810 5811 5813 5814 5814 5815 5815 5815 5814 5814 5813 5812 5811 5811 5810 5809 5807 5807 5805 5804 5803 5802 5801 5799 5798 5796 5794 5792 5790 5788 5787 5785 5783
5787 5790 5791 5792 5793 5794 5795 5796 5797 5798 5800 5800 5801 5802 5803 5803 5803 5803 5802 5802 5802 5801 5800 5799 5799 5798 5797 5796 5795 5794 5793 5791 5790 5789 5788 5786 5785 5784 5781 5780 5778 5776 5775 5773
5778 5780 5781 5782 5783 5784 5785 5787 5788 5789 5789 5790 5790 5791 5792 5792 5791 5791 5790 5790 5789 5788 5788 5788 5787 5786 5785 5784 5784 5783 5782 5780 5779 5777 5776 5775 5774 5772 5771 5769 5767 5765 5764 5762
5769 5770 5771 5773 5773 5774 5775 5776 5777 5778 5778 5778 5779 5780 5780 5780 5779 5779 5779 5778 5777 5776 5775 5775 5775 5774 5773 5772 5772 5771 5770 5768 5767 5766 5764 5763 5762 5761 5759 5757 5756 5754 5753 5752
5761 5762 5763 5763 5764 5765 5765 5766 5766 5767 5767 5768 5768 5768 5768 5768 5768 5768 5767 5766 5765 5764 5764 5763 5763 5762 5761 5761 5760 5759 5758 5757 5756 5754 5753 5752 5750 5749 5747 5746 5745 5744 5743 5741
5752 5753 5754 5754 5754 5755 5755 5756 5756 5756 5757 5757 5758 5757 5757 5757 5756 5756 5755 5755 5754 5753 5752 5752 5752 5751 5750 5749 5749 5748 5747 5746 5745 5743 5742 5741 5739 5737 5736 5735 5734 5733 5732 5731
5744 5745 5744 5744 5744 5745 5745 5745 5745 5746 5747 5747 5748 5747 5747 5746 5746 5745 5744 5743 5743 5742 5742 5741 5740 5740 5739 5738 5738 5737 5736 5735 5734 5733 5732 5730 5728 5727 5726 5725 5724 5723 5722 5720
5736 5736 5736 5735 5735 5735 5735 5735 5736 5736 5737 5737 5737 5737 5737 5736 5736 5735 5734 5733 5732 5732 5731 5730 5729 5728 5728 5728 5727 5727 5726 5725 5724 5723 5722 5721 5719 5718 5717 5716 5714 5713 5711 5710
5728 5728 5727 5727 5726 5726 5726 5726 5726 5727 5727 5727 5727 5727 5726 5726 5725 5725 5724 5723 5722 5722 5721 5720 5719 5718 5718 5717 5716 5716 5715 5715 5714 5713 5712 5711 5709 5708 5707 5706 5705 5703 5702 5700
5720 5720 5719 5718 5717 5717 5717 5717 5717 5718 5718 5717 5718 5718 5717 5716 5716 5715 5714 5713 5712 5712 5711 5711 5709 5708 5707 5706 5706 5705 5705 5704 5704 5703 5702 5701 5700 5698 5697 5696 5695 5693 5692 5690
5712 5712 5711 5710 5709 5709 5708 5708 5708 5708 5708 5709 5709 5709 5708 5707 5706 5705 5705 5704 5703 5702 5702 5701 5699 5698 5697 5696 5696 5695 5694 5694 5693 5692 5692 5691 5690 5689 5688 5686 5685 5684 5682 5680
5705 5705 5704 5703 5702 5701 5700 5700 5700 5700 5700 5700 5699 5699 5699 5698 5697 5696 5695 5695 5694 5693 5692 5691 5690 5689 5688 5687 5686 5685 5684 5684 5683 5682 5681 5681 5680 5679 5678 5677 5675 5674 5672 5670
5698 5697 5696 5696 5695 5694 5693 5692 5692 5691 5691 5691 5690 5690 5690 5689 5688 5688 5687 5686 5685 5684 5683 5682 5681 5679 5678 5677 5676 5675 5675 5674 5673 5673 5672 5671 5670 5669 5668 5667 5665 5664 5662 5661
5691 5690 5689 5688 5688 5687 5686 5685 5684 5684 5683 5683 5682 5682 5681 5681 5680 5679 5679 5678 5677 5676 5674 5673 5672 5671 5670 5669 5667 5667 5665 5665 5664 5663 5663 5662 5660 5659 5658 5657 5656 5654 5653 5651
5684 5683 5682 5681 5681 5680 5679 5678 5677 5677 5676 5676 5675 5674 5674 5673 5673 5672 5671 5670 5669 5668 5666 5665 5664 5663 5661 5660 5659 5658 5657 5656 5655 5654 5654 5653 5652 5650 5649 5648 5646 5645 5644 5642
5677 5676 5676 5675 5674 5674 5673 5672 5672 5671 5670 5669 5669 5668 5667 5666 5666 5665 5664 5662 5661 5660 5659 5657 5656 5655 5654 5652 5651 5650 5649 5648 5647 5646 5645 5644 5643 5642 5641 5639 5638 5637 5635 5634
5671 5671 5670 5669 5669 5668 5667 5666 5666 5665 5664 5663 5663 5662 5661 5660 5659 5658 5657 5656 5654 5653 5652 5650 5649 5648 5646 5645 5644 5643 5642 5641 5640 5639 5638 5636 5635 5633 5632 5631 5629 5628 5627 5625